Temp
8 8 8 8 9 9 9 9 9 9 9 9 9 9 9 9 9 9 9 9 9 9 9 9 9 9 9 9 9 9 9 9 9 9 9 8 8 8 8 7 7 7 6 6 6 6 6 6 6 6 7 7 7 7 7 7 7 7 6 6 6 6 6 6 6 6 6 6 6 6 6 6 6 7 7 7 7 7 7 7 7 7 7 7 7 7
7 7 8 8 8 9 9 9 9 9 9 9 9 8 8 8 8 8 8 8 8 8 8 8 8 8 8 8 8 8 8 8 8 8 8 8 8 8 8 7 7 6 6 6 6 6 6 6 6 6 6 6 6 6 7 6 6 6 6 6 6 6 6 6 6 6 6 6 6 6 6 6 7 7 7 7 7 7 7 7 7 7 7 7 7 7
7 7 8 8 8 8 9 9 9 9 9 8 8 8 7 7 7 7 7 7 7 7 8 8 8 8 8 8 8 8 8 8 8 8 8 8 8 8 7 7 7 6 6 6 6 6 6 6 6 6 6 6 6 6 6 6 6 6 6 6 6 7 7 7 7 6 6 6 6 6 6 6 6 6 6 6 6 6 6 6 6 6 6 6 6 6
7 7 7 8 8 8 8 8 8 8 8 8 8 7 7 6 6 6 7 7 7 7 7 7 7 7 7 7 7 7 7 7 7 7 7 8 8 7 7 7 7 7 7 6 6 6 6 6 6 6 6 6 6 6 6 6 6 6 6 6 6 7 7 7 7 6 6 6 6 6 6 6 6 6 6 6 6 6 6 6 6 6 6 6 6 6
7 7 7 7 8 8 8 8 8 8 8 8 8 7 7 7 7 7 7 7 7 7 7 7 7 7 7 7 7 7 7 7 7 7 7 7 7 7 7 7 7 7 7 7 6 6 6 6 6 6 6 6 6 6 6 6 6 6 6 6 6 6 6 6 6 6 6 6 6 6 6 6 6 6 6 6 6 6 6 6 6 6 6 6 6 6
7 7 7 7 8 8 8 8 7 7 7 7 7 7 7 7 7 7 7 7 7 7 7 7 7 7 7 7 7 7 7 7 7 7 7 7 7 7 7 7 7 7 7 7 7 6 6 6 6 6 6 6 6 6 6 6 6 6 6 6 6 6 6 6 6 6 6 6 6 6 6 6 6 6 6 6 6 6 5 5 5 5 5 5 5 5
7 7 7 7 7 7 7 7 7 7 7 7 7 7 7 7 7 7 6 6 6 6 6 6 6 6 6 6 6 6 6 6 6 6 7 7 7 7 7 7 7 7 7 7 7 7 6 6 6 6 6 6 5 5 5 5 5 5 5 5 5 5 5 5 5 5 5 5 5 5 5 5 5 5 5 5 5 5 5 5 5 5 5 5 5 5
7 7 7 7 7 7 7 7 7 7 7 7 7 7 7 6 6 6 6 6 6 6 6 6 6 6 6 6 6 6 6 6 6 6 6 6 6 6 7 7 7 7 7 7 7 7 6 6 6 6 6 6 5 5 5 5 5 5 5 5 5 5 5 5 5 5 5 5 5 5 5 5 5 5 5 5 5 5 4 4 4 4 4 4 4 4
7 7 7 7 7 7 6 7 7 7 7 7 6 6 6 6 6 6 6 6 6 6 6 6 6 6 6 6 6 6 6 6 6 6 6 6 6 6 6 6 7 7 7 7 7 6 6 6 6 6 6 5 5 5 5 5 5 5 5 5 5 5 5 5 5 5 5 5 5 5 5 5 5 5 4 4 4 4 4 4 4 4 4 4 4 4
7 7 7 7 7 7 6 6 6 6 6 6 6 6 6 5 5 5 5 5 5 6 6 6 6 6 6 6 6 6 6 6 6 6 6 6 6 6 6 6 6 6 6 6 6 6 6 6 6 6 5 5 5 5 5 5 5 5 5 5 5 5 5 5 5 5 5 5 5 5 5 5 4 4 4 4 4 4 4 3 3 3 3 3 3 3
7 7 7 7 7 6 6 6 6 6 6 6 6 5 5 5 5 5 5 5 5 5 5 5 5 6 6 6 6 6 6 5 5 5 5 6 6 6 6 6 6 6 6 6 6 6 6 5 5 5 5 5 5 5 4 4 4 4 4 5 5 5 5 5 5 5 5 5 5 5 5 4 4 4 4 4 4 4 3 3 3 3 3 3 3 3
7 6 6 6 6 6 6 6 6 6 6 5 5 5 5 5 5 4 4 5 5 5 5 5 5 6 6 6 6 6 5 5 5 5 5 5 5 5 5 5 5 5 5 5 5 5 5 5 5 5 5 5 5 4 4 4 4 4 4 4 4 4 4 4 4 5 5 5 5 5 4 4 4 4 4 4 4 3 3 3 3 3 3 3 3 3
6 6 6 6 5 5 6 5 5 5 5 5 5 4 4 4 4 4 4 4 5 5 5 5 5 5 6 6 6 6 5 5 5 5 5 5 5 5 5 5 5 5 5 5 5 5 5 5 4 4 4 4 4 4 4 4 4 4 4 4 4 4 4 4 4 4 4 4 4 4 4 4 4 4 4 4 4 3 3 3 3 3 3 3 3 3
6 6 5 5 5 5 5 5 5 5 5 5 4 5 5 5 5 5 4 4 4 5 5 5 5 5 6 6 6 5 5 5 5 5 5 5 5 5 5 5 5 5 4 4 4 4 4 4 4 4 4 4 4 4 4 4 4 4 4 4 4 4 4 4 4 4 4 4 4 4 4 4 4 4 4 4 3 3 3 3 3 3 2 2 2 2
6 5 5 5 5 5 5 5 5 5 5 5 5 5 5 5 5 5 4 4 4 5 5 5 5 5 5 5 5 5 5 5 5 5 4 4 5 5 5 4 4 4 4 4 4 4 4 4 4 4 4 4 4 4 4 4 4 4 4 4 4 4 4 4 4 4 4 4 4 4 4 3 3 3 3 3 3 3 2 2 2 2 2 2 2 2
5 5 5 5 5 5 5 5 5 5 5 5 5 5 5 4 4 4 4 4 5 5 5 5 5 5 5 5 5 5 5 5 5 4 4 4 4 4 4 4 4 4 4 4 4 4 4 4 4 4 4 4 4 4 4 4 4 4 4 4 4 4 3 3 3 3 3 3 3 3 3 3 3 2 2 2 2 2 2 2 2 2 2 2 2 2
5 5 5 5 5 5 5 5 5 5 5 5 5 5 5 5 5 4 4 4 5 5 5 5 4 4 5 6 5 5 5 5 4 4 4 4 4 4 4 4 4 4 4 4 4 4 4 4 4 4 4 4 4 3 3 3 3 3 3 3 3 3 3 3 3 3 3 3 3 2 2 2 2 2 1 1 1 1 1 1 1 1 1 1 1 1
5 4 5 5 5 5 5 5 5 5 5 5 5 5 6 5 5 5 5 5 5 5 5 5 4 4 5 6 6 5 5 5 5 4 4 4 4 4 4 4 4 4 4 4 4 4 4 4 4 3 3 3 3 3 3 3 3 3 3 3 3 3 3 3 3 3 3 2 2 2 1 1 1 1 1 1 1 1 1 1 1 1 1 1 1 1
5 5 4 4 4 5 5 5 5 5 5 5 5 5 5 5 5 5 5 5 5 5 5 5 5 5 5 6 6 5 5 5 4 4 3 3 3 4 4 4 3 3 4 4 4 4 4 4 4 3 3 3 3 3 3 2 2 2 2 2 2 2 2 2 2 2 2 1 1 1 1 1 1 1 1 1 1 1 1 1 1 1 1 1 1 1
5 5 5 5 5 4 4 4 4 4 4 5 5 5 5 5 5 5 5 5 4 4 5 5 5 5 5 5 5 5 5 5 4 3 3 3 3 3 4 4 3 3 3 4 4 4 4 4 3 3 3 3 3 3 2 2 2 2 2 2 2 2 2 2 2 2 1 1 1 1 0 0 0 0 0 0 1 1 1 0 0 0 0 0 0 0
5 5 5 5 5 5 5 4 4 4 4 5 5 5 5 5 5 4 4 4 4 4 4 4 4 4 5 5 5 4 4 4 4 3 2 2 2 3 3 3 3 3 3 4 4 4 4 3 3 3 3 3 3 2 2 2 2 2 2 2 2 2 2 2 1 1 1 1 0 0 0 0 0 0 0 0 0 0 0 0 0 0 0 0 0 0
4 4 5 5 5 5 5 5 5 5 5 5 5 5 5 4 4 4 4 4 4 4 4 4 4 4 4 4 4 4 4 4 4 3 2 2 2 3 3 3 3 3 3 3 4 4 3 3 3 3 3 3 2 2 2 2 2 2 2 2 1 1 1 1 1 1 0 0 0 0 0 0 0 0 0 0 0 0 0 -0 -0 -0 -0 -0 -0 -0
4 4 4 4 4 4 5 5 5 5 5 5 5 5 5 5 4 4 4 4 4 4 4 4 4 4 4 4 4 3 3 3 3 3 2 2 2 3 3 3 3 3 3 3 3 3 3 3 3 3 2 2 2 2 2 2 2 1 1 1 1 1 1 1 0 0 -0 -0 -0 -0 -0 0 0 0 0 0 -0 -0 -0 -0 -0 -0 -0 -0 -0 -0
4 4 4 4 4 4 4 4 4 4 4 4 5 5 5 5 5 5 4 4 4 4 4 3 3 3 3 3 3 3 2 2 2 2 2 1 2 3 3 3 3 3 3 3 3 3 3 2 2 2 2 2 2 2 2 2 1 1 1 1 1 1 1 0 0 -0 -0 -0 -0 -0 -0 0 0 -0 -0 -0 -0 -0 -1 -1 -1 -1 -1 -1 -1 -0
4 4 4 4 4 4 4 4 4 4 4 4 4 4 4 4 4 4 4 4 4 3 3 3 2 2 2 2 2 2 2 2 2 2 1 1 2 2 3 2 2 2 2 2 2 2 2 2 2 2 2 2 2 2 2 1 1 1 1 1 1 0 0 0 -0 -0 -1 -1 -0 -0 -0 -0 -0 -0 -0 -1 -1 -1 -1 -1 -1 -1 -1 -1 -1 -1
3 3 4 4 4 4 4 4 4 4 4 4 4 4 4 4 4 4 4 3 3 3 2 2 2 2 2 2 2 1 1 1 1 1 1 1 2 2 2 2 2 2 2 2 2 2 2 2 2 2 2 2 2 2 2 1 1 1 1 1 0 0 -0 -0 -0 -1 -1 -1 -0 -0 -0 -0 -0 -1 -1 -1 -1 -1 -1 -1 -1 -1 -1 -1 -1 -1
4 4 4 4 4 4 4 4 4 4 4 4 4 4 4 4 4 3 2 2 2 2 2 1 1 1 2 1 1 1 2 1 1 1 1 1 1 2 2 2 2 1 1 1 1 1 1 1 1 1 2 2 2 2 1 1 1 1 1 0 0 0 -0 -0 -1 -1 -1 -1 -0 -0 -0 -0 -0 -1 -1 -1 -1 -1 -1 -1 -1 -1 -1 -1 -1 -1
4 4 4 4 4 4 4 4 4 4 4 4 4 4 4 3 3 2 2 2 2 2 1 1 1 1 2 2 2 2 2 2 2 1 1 1 0 1 1 1 1 1 1 1 1 1 1 1 1 1 2 2 2 1 1 1 1 1 1 0 0 0 -0 -1 -1 -1 -1 -0 -0 -0 -0 -0 -1 -1 -1 -1 -1 -1 -1 -1 -1 -1 -1 -1 -2 -2
4 4 4 4 4 4 4 4 4 4 4 4 3 3 3 3 3 2 2 2 2 2 1 1 1 1 2 2 2 2 2 2 2 2 1 0 0 0 1 1 1 1 1 1 1 1 1 1 1 1 2 1 1 1 1 1 1 1 1 0 0 0 -0 -0 -0 -0 -0 -0 -0 -0 -1 -1 -1 -1 -1 -1 -1 -1 -1 -1 -1 -1 -2 -2 -2 -2
4 4 4 4 4 4 4 4 4 4 4 4 3 3 3 3 3 3 2 2 2 1 1 1 1 1 1 2 1 1 2 2 2 2 1 0 -0 0 1 1 0 0 0 -0 -1 -1 0 1 1 1 1 1 1 1 1 0 0 0 0 0 0 0 0 -0 -0 -0 -0 -0 -1 -1 -1 -1 -1 -1 -1 -1 -1 -1 -1 -1 -1 -1 -2 -2 -2 -2
3 3 3 3 3 3 4 4 4 4 4 3 3 3 3 3 2 2 2 2 2 2 1 1 1 1 1 1 1 1 1 2 2 1 1 0 -0 0 0 0 0 0 0 -0 -3 -3 -1 -1 0 1 1 1 0 0 0 0 0 0 0 0 0 0 -0 -0 -0 -0 -1 -1 -1 -1 -1 -1 -1 -1 -1 -1 -1 -1 -1 -1 -1 -1 -2 -2 -2 -2
3 3 3 3 3 3 3 3 3 3 3 3 3 3 3 2 2 2 2 2 2 1 1 1 1 1 1 1 1 1 1 1 1 1 1 0 0 0 0 -0 0 0 0 -0 -1 -2 -1 -2 -1 0 0 0 0 0 0 -0 -0 -0 -0 -0 -0 -0 -0 -0 -1 -1 -1 -1 -1 -1 -1 -1 -1 -1 -1 -1 -1 -1 -1 -1 -1 -1 -2 -2 -2 -2
3 3 3 3 3 3 3 3 3 3 3 3 2 2 2 2 2 2 2 2 2 1 1 1 1 1 1 1 1 1 2 1 1 1 0 0 0 -0 -0 -0 -0 -0 -0 -0 -0 -1 -1 -1 -1 -0 -0 -0 -0 -0 -0 -0 -0 -0 -0 -0 -0 -0 -0 -0 -1 -1 -1 -1 -1 -1 -1 -1 -1 -1 -1 -1 -1 -1 -1 -1 -1 -1 -2 -2 -2 -2
3 3 3 3 3 3 3 3 3 2 2 2 2 2 2 2 2 2 2 1 1 1 1 1 1 1 1 1 1 1 1 1 1 0 0 0 -0 -0 -0 -1 -1 -1 -1 -1 -1 -1 -1 -1 -1 -1 -1 -1 -1 -1 -1 -1 -1 -0 -0 -0 -0 -0 -0 -0 -0 -1 -1 -1 -1 -1 -1 -1 -1 -1 -2 -2 -2 -2 -2 -2 -2 -2 -2 -2 -2 -2
3 3 3 3 3 3 2 2 2 2 2 2 2 2 2 1 1 1 1 1 1 1 1 1 1 1 1 1 1 0 1 1 0 0 -0 -0 -0 -0 -1 -1 -1 -1 -1 -1 -1 -1 -1 -1 -1 -1 -1 -1 -1 -1 -1 -1 -1 -1 -1 -0 -0 -0 -0 -0 -1 -1 -1 -1 -1 -1 -1 -1 -1 -1 -2 -2 -2 -2 -2 -2 -2 -2 -2 -2 -2 -2
3 3 3 3 2 2 2 2 2 2 2 1 1 1 1 1 1 1 1 1 1 1 0 0 0 0 0 1 1 0 0 0 0 -0 -0 -0 -0 -1 -1 -1 -1 -1 -1 -1 -1 -1 -1 -1 -2 -2 -2 -2 -2 -2 -2 -1 -1 -1 -1 -1 -1 -1 -1 -1 -1 -1 -1 -1 -1 -1 -1 -1 -1 -2 -2 -2 -2 -2 -2 -2 -2 -2 -2 -2 -2 -2
3 3 3 2 2 2 2 2 2 2 1 1 1 1 1 1 1 1 1 1 0 0 0 -0 -0 0 0 0 0 0 0 0 -0 -0 -1 -1 -1 -1 -1 -1 -1 -2 -2 -2 -2 -2 -2 -2 -2 -2 -2 -3 -2 -2 -2 -2 -2 -2 -1 -1 -1 -1 -1 -1 -1 -1 -1 -1 -2 -2 -2 -2 -2 -2 -2 -2 -2 -2 -2 -2 -2 -2 -2 -2 -2 -2
3 3 3 2 2 2 2 2 2 1 1 1 1 1 1 1 1 0 0 0 0 -0 -0 -0 -0 -0 -0 -0 -0 -0 -0 -0 -1 -1 -1 -1 -1 -1 -2 -2 -2 -2 -2 -2 -2 -2 -2 -3 -3 -3 -3 -3 -3 -2 -2 -2 -2 -2 -2 -2 -2 -2 -2 -2 -2 -2 -2 -2 -2 -2 -2 -2 -2 -2 -2 -2 -2 -2 -2 -2 -2 -2 -2 -3 -3 -3
3 3 3 3 2 2 2 2 1 1 1 1 1 1 1 1 0 0 0 -0 -0 -0 -0 -0 -0 -0 -0 -0 -0 -0 -1 -1 -1 -1 -1 -2 -2 -2 -2 -2 -2 -2 -2 -2 -2 -2 -2 -3 -3 -3 -4 -3 -3 -3 -3 -3 -3 -3 -3 -3 -3 -3 -2 -2 -2 -2 -2 -2 -2 -2 -2 -2 -2 -2 -2 -2 -2 -2 -2 -2 -2 -2 -3 -3 -3 -3
3 3 3 3 2 2 2 2 1 1 1 1 1 1 1 1 0 0 -0 -0 -0 -0 -0 -0 -0 -0 -0 -0 -1 -1 -1 -1 -1 -1 -1 -2 -2 -2 -2 -2 -2 -2 -2 -2 -3 -3 -3 -3 -3 -3 -3 -3 -3 -3 -3 -3 -3 -3 -3 -3 -3 -3 -3 -3 -3 -3 -3 -2 -2 -2 -2 -2 -2 -2 -2 -2 -2 -2 -2 -2 -2 -3 -3 -3 -3 -3
3 3 3 2 2 2 2 2 1 1 1 1 1 1 1 0 0 -0 -0 -0 -0 -0 -0 -0 -1 -1 -1 -1 -1 -1 -1 -1 -1 -1 -1 -2 -2 -2 -2 -2 -2 -2 -2 -3 -3 -3 -3 -3 -3 -3 -3 -3 -3 -3 -3 -3 -3 -3 -3 -3 -3 -3 -3 -3 -3 -3 -3 -3 -3 -3 -2 -2 -2 -2 -2 -2 -2 -2 -2 -2 -2 -3 -3 -3 -3 -3
3 3 3 2 2 2 2 1 1 1 1 1 1 0 0 0 -0 -0 -0 -1 -1 -1 -1 -1 -1 -1 -1 -1 -1 -1 -1 -1 -1 -1 -1 -2 -2 -2 -2 -2 -2 -3 -3 -3 -3 -3 -3 -3 -3 -4 -4 -4 -3 -3 -3 -3 -3 -3 -3 -3 -3 -3 -3 -3 -3 -3 -3 -3 -3 -3 -3 -3 -2 -2 -2 -2 -2 -2 -2 -3 -3 -3 -3 -3 -3 -3
3 3 2 2 2 2 2 1 1 1 1 0 0 0 0 0 -0 -0 -0 -1 -1 -1 -1 -1 -1 -1 -1 -2 -2 -2 -2 -2 -2 -2 -2 -2 -2 -2 -2 -2 -3 -3 -3 -3 -3 -3 -3 -3 -4 -4 -4 -4 -4 -3 -3 -3 -3 -3 -3 -3 -3 -3 -3 -3 -3 -3 -3 -3 -3 -3 -3 -3 -3 -3 -3 -3 -3 -3 -3 -3 -3 -3 -3 -3 -3 -3
3 2 2 2 2 2 1 1 1 1 0 0 -0 -0 -0 -0 -0 -0 -1 -1 -1 -1 -1 -1 -1 -1 -2 -2 -2 -2 -2 -2 -2 -2 -2 -2 -2 -2 -3 -3 -3 -3 -3 -3 -3 -3 -4 -4 -4 -4 -4 -4 -4 -3 -3 -3 -3 -3 -3 -3 -3 -3 -3 -3 -3 -3 -3 -3 -3 -3 -3 -3 -3 -3 -3 -3 -3 -3 -3 -3 -3 -3 -3 -3 -3 -4
2 2 2 2 2 1 1 1 1 0 0 -0 -0 -0 -0 -0 -0 -0 -1 -1 -1 -1 -1 -1 -2 -2 -2 -2 -2 -2 -2 -2 -2 -2 -2 -2 -2 -3 -3 -3 -3 -3 -3 -3 -3 -3 -4 -4 -4 -4 -3 -3 -4 -4 -4 -4 -4 -4 -4 -4 -4 -4 -4 -4 -4 -4 -4 -4 -4 -3 -3 -3 -3 -3 -3 -3 -3 -3 -3 -3 -3 -3 -3 -4 -4 -4
2 2 2 2 1 1 1 0 0 0 -0 -0 -0 -0 -0 -0 -1 -1 -1 -1 -1 -1 -1 -2 -2 -2 -2 -2 -2 -2 -2 -2 -2 -2 -2 -2 -2 -3 -3 -3 -3 -3 -3 -3 -3 -3 -4 -4 -3 -3 -4 -4 -4 -4 -4 -4 -4 -4 -4 -4 -4 -4 -4 -4 -4 -4 -4 -4 -4 -3 -3 -3 -3 -3 -3 -3 -3 -3 -3 -4 -4 -4 -4 -4 -4 -4
2 2 2 1 1 1 0 0 0 -0 -0 -0 -1 -1 -1 -1 -1 -1 -1 -1 -1 -1 -2 -2 -2 -2 -2 -2 -2 -2 -2 -3 -3 -3 -2 -2 -2 -2 -2 -3 -3 -3 -3 -3 -3 -3 -3 -3 -3 -4 -4 -4 -4 -4 -4 -4 -4 -4 -4 -4 -4 -4 -4 -4 -4 -4 -4 -4 -4 -4 -3 -3 -3 -3 -3 -4 -4 -4 -4 -4 -4 -4 -4 -4 -4 -5
2 2 1 1 0 0 0 -0 -0 -0 -1 -1 -1 -1 -1 -1 -1 -1 -1 -1 -1 -1 -2 -2 -2 -2 -2 -2 -2 -2 -2 -2 -2 -2 -2 -2 -2 -2 -2 -3 -3 -3 -3 -3 -3 -3 -3 -4 -4 -4 -4 -4 -4 -4 -4 -5 -5 -5 -5 -5 -5 -5 -5 -5 -5 -4 -4 -4 -4 -4 -3 -3 -4 -4 -4 -4 -4 -4 -4 -5 -5 -5 -5 -5 -5 -5
1 1 1 1 0 0 -0 -0 -0 -1 -1 -1 -1 -1 -1 -1 -1 -1 -1 -1 -1 -1 -2 -2 -2 -2 -2 -2 -2 -2 -2 -2 -2 -2 -2 -2 -2 -3 -3 -3 -3 -3 -3 -3 -3 -4 -4 -4 -4 -4 -4 -4 -5 -5 -5 -5 -5 -5 -5 -5 -5 -5 -5 -5 -5 -4 -4 -4 -4 -4 -4 -4 -4 -4 -4 -5 -5 -5 -5 -5 -5 -5 -5 -5 -5 -5
1 1 1 0 0 -0 -0 -0 -0 -1 -1 -1 -1 -1 -1 -1 -1 -1 -1 -1 -1 -1 -1 -2 -2 -2 -2 -2 -2 -2 -2 -2 -2 -2 -2 -2 -2 -3 -3 -3 -3 -3 -4 -4 -4 -4 -4 -4 -4 -4 -4 -4 -4 -5 -5 -5 -5 -5 -5 -5 -5 -5 -5 -5 -5 -4 -4 -4 -4 -4 -4 -4 -4 -4 -5 -5 -5 -5 -5 -5 -5 -5 -5 -5 -5 -5
1 1 0 0 -0 -0 -0 -0 -0 -0 -0 -0 -1 -1 -1 -1 -1 -1 -1 -1 -1 -1 -1 -1 -2 -2 -2 -2 -2 -2 -2 -2 -2 -2 -2 -2 -3 -3 -3 -3 -3 -4 -4 -4 -4 -4 -4 -4 -4 -4 -4 -4 -4 -4 -4 -4 -5 -5 -5 -5 -5 -5 -5 -4 -4 -4 -4 -4 -4 -4 -4 -5 -5 -5 -5 -5 -6 -6 -6 -6 -6 -6 -6 -5 -5 -5
Height
764 764 763 763 763 762 760 760 760 760 759 759 758 757 756 756 756 756 757 757 756 756 756 757 757 756 756 756 755 755 755 755 755 754 754 754 753 752 752 751 751 751 750 750 750 749 749 749 749 749 749 749 749 749 749 749 749 749 749 748 748 748 748 748 747 747 747 747 747 746 746 746 745 745 745 745 744 744 744 743 743 743 742 742 742 742
763 763 762 762 761 760 759 759 759 759 758 757 757 756 755 755 754 754 755 755 755 755 755 755 755 754 754 754 754 754 753 753 753 753 753 752 752 751 750 750 750 749 749 749 748 748 748 747 747 747 747 747 747 747 747 747 747 747 747 747 746 746 746 746 746 745 745 745 745 744 744 744 744 744 744 743 743 743 742 742 742 741 741 740 740 740
762 761 761 760 760 759 758 758 757 757 757 756 756 755 755 754 754 754 754 754 754 753 753 753 753 753 753 752 752 752 751 751 751 751 751 751 750 749 749 749 748 748 748 747 747 747 746 746 746 745 745 745 745 745 745 745 745 745 745 745 745 744 744 744 744 744 744 744 743 743 743 743 742 742 742 742 742 741 741 741 740 740 739 739 739 739
761 760 759 759 759 758 757 757 756 756 755 755 754 754 754 754 753 753 753 753 752 752 752 751 751 751 751 750 750 750 750 749 749 749 749 749 749 748 748 747 747 746 746 746 745 745 745 745 744 744 744 744 743 743 743 743 743 743 743 743 743 743 743 743 743 742 742 742 741 741 741 741 741 741 740 740 740 740 739 739 739 739 738 738 738 738
760 759 758 758 757 756 756 755 755 754 754 754 753 753 753 752 752 751 751 751 751 750 750 750 750 749 749 749 749 748 748 748 748 747 747 747 747 746 746 745 745 745 744 744 744 744 744 743 743 743 742 742 742 742 742 742 742 742 742 742 741 741 741 741 741 741 740 740 740 739 739 739 739 739 739 739 739 738 738 738 737 737 737 737 736 736
758 758 757 757 756 755 755 754 754 754 753 753 752 752 751 751 750 750 750 749 749 749 748 748 748 748 747 747 747 747 746 746 746 745 745 745 745 744 744 744 744 743 743 743 743 742 742 742 742 741 741 741 741 740 740 740 740 740 740 740 740 740 739 739 739 739 739 738 738 738 738 737 737 737 737 737 737 736 736 736 736 735 735 735 735 735
756 756 756 755 754 754 754 753 753 753 753 752 751 750 750 749 749 749 748 748 748 747 747 746 746 746 745 745 745 745 744 744 744 744 744 743 743 743 743 743 742 742 742 741 741 741 741 741 740 740 740 739 739 739 739 739 739 738 738 738 738 738 738 738 738 737 737 737 736 736 736 736 735 735 735 735 735 735 734 734 734 734 734 734 734 734
754 754 754 754 753 753 752 752 752 752 752 751 750 749 749 748 748 747 747 746 746 745 745 744 744 744 743 743 743 743 743 742 742 742 742 742 741 741 741 741 741 741 740 740 740 740 739 739 739 739 739 738 738 738 737 737 737 737 737 736 736 736 736 736 736 735 735 735 734 734 734 734 734 734 733 733 733 733 733 733 733 732 732 732 732 732
753 753 752 753 752 752 751 750 750 751 750 750 749 749 748 747 746 745 745 744 744 744 744 743 742 741 741 741 741 741 741 740 740 740 740 740 740 740 740 739 739 739 739 739 739 739 738 738 738 737 737 737 736 736 736 735 735 735 735 734 734 734 734 734 734 734 734 733 733 733 732 732 732 732 731 731 731 731 731 731 731 731 731 731 730 730
752 752 751 751 751 751 750 749 749 749 749 749 748 747 747 746 745 744 744 743 742 742 742 741 740 739 739 739 739 739 739 739 738 738 739 738 738 738 738 738 738 738 738 738 738 737 737 737 736 736 736 735 735 734 734 734 734 733 733 733 733 732 732 732 732 732 732 732 731 731 731 730 730 730 730 730 729 729 729 729 729 729 729 729 729 729
751 751 750 749 749 749 749 748 748 748 748 747 746 746 746 745 745 744 743 741 740 740 739 739 738 738 737 737 737 737 737 737 737 737 737 737 737 737 737 737 737 736 736 736 736 736 735 735 735 735 734 734 734 733 733 732 732 731 731 731 731 730 730 730 730 730 730 730 729 729 729 729 729 728 728 728 728 728 728 728 728 727 727 727 727 727
750 750 749 749 748 748 748 747 747 747 747 746 745 744 744 744 744 744 743 741 739 739 738 737 736 736 735 735 735 736 736 735 735 735 735 735 735 735 735 735 735 735 734 734 734 734 734 734 734 733 733 732 732 731 731 730 730 729 729 729 729 729 729 729 728 728 728 728 728 728 727 727 727 727 726 726 726 726 726 726 726 726 725 725 725 725
749 749 748 747 747 746 746 746 746 745 745 744 744 743 742 742 743 743 741 739 738 738 737 736 735 734 734 734 734 734 734 734 734 734 734 734 734 734 734 733 733 733 733 733 732 732 732 732 732 732 731 731 730 730 729 729 728 728 728 727 727 727 727 727 726 726 726 726 726 726 726 725 725 725 725 724 724 724 724 724 724 724 724 724 724 723
748 748 747 746 745 744 745 745 744 744 743 742 742 741 741 741 741 741 739 738 737 736 736 735 734 733 732 733 733 733 733 733 733 733 733 732 732 732 732 732 731 731 731 731 730 730 730 730 730 730 730 729 729 728 728 727 727 726 726 725 725 725 725 725 724 724 724 724 724 724 724 724 724 723 723 723 723 723 723 723 723 722 722 722 722 722
746 746 745 744 743 743 743 743 743 741 740 740 740 739 739 739 739 739 738 736 735 735 735 734 733 732 731 731 731 732 732 732 732 732 731 730 730 730 731 730 729 729 729 729 728 728 729 729 729 728 728 728 727 727 726 726 725 725 724 724 724 723 723 723 723 723 723 723 723 723 722 722 722 722 722 721 721 721 721 721 721 721 720 720 720 720
744 744 744 742 741 740 741 741 740 739 739 738 738 738 738 737 737 737 737 735 735 734 734 733 732 731 730 729 730 730 730 730 730 730 729 728 728 729 729 729 728 727 727 727 726 726 727 727 727 726 726 726 725 725 725 724 724 723 723 722 722 722 721 721 721 721 721 721 721 721 721 720 720 720 720 720 720 719 719 719 719 719 719 719 718 718
742 742 741 740 739 738 738 739 739 738 737 737 737 736 736 735 735 735 735 734 734 734 733 733 732 730 728 728 728 728 729 729 728 728 728 726 726 726 727 727 726 725 725 725 724 724 725 725 725 725 724 724 724 724 723 723 722 721 721 720 720 720 719 719 719 719 719 719 719 719 719 719 719 719 719 719 718 718 718 718 718 717 717 717 716 716
739 739 739 738 737 736 736 737 736 736 736 735 735 734 734 734 734 734 733 733 733 733 732 731 731 730 728 726 726 726 726 727 726 726 726 725 724 724 725 725 724 724 724 723 723 723 724 724 724 723 723 723 723 722 722 721 720 720 719 719 719 718 718 718 717 717 717 717 717 718 718 718 718 718 717 717 717 717 716 716 716 716 715 715 715 714
736 736 736 735 734 734 734 734 734 734 734 734 734 733 733 732 732 732 732 731 731 731 731 730 729 728 727 725 724 724 725 725 725 724 724 723 722 723 724 724 723 722 722 722 721 722 722 722 722 722 722 722 721 721 720 720 719 719 718 717 717 717 716 716 715 715 715 715 716 716 716 716 716 716 716 715 715 715 715 715 714 714 714 713 713 713
733 733 733 732 732 731 731 731 731 731 731 731 732 732 731 730 730 730 730 729 729 729 729 728 727 725 725 724 724 723 724 724 724 723 723 722 721 721 722 722 722 721 720 720 720 720 720 720 720 720 720 720 720 719 719 719 718 718 717 716 715 715 714 714 714 714 714 714 714 714 715 715 715 714 714 714 714 714 714 713 713 713 712 712 711 711
730 729 729 730 730 729 728 727 728 728 729 729 730 730 729 729 729 728 728 728 728 727 727 726 725 724 724 724 723 723 723 723 723 722 722 721 720 720 721 721 720 719 719 718 718 719 719 719 719 719 719 719 718 718 718 717 717 716 715 715 714 714 713 712 712 712 712 712 713 713 713 713 713 713 713 713 713 712 712 712 712 711 710 710 709 709
727 725 725 727 727 726 724 724 725 726 727 728 728 727 727 727 727 726 726 726 726 725 725 724 723 723 723 723 722 721 721 722 722 721 721 721 719 719 719 719 719 718 717 716 717 717 717 717 717 717 717 717 717 717 716 716 715 715 714 713 713 712 711 711 710 710 711 711 711 711 712 712 712 712 712 712 711 711 710 710 710 709 709 708 708 707
724 723 723 724 724 723 722 722 723 724 725 725 725 724 724 725 724 724 724 724 724 723 723 722 722 722 721 721 721 720 720 720 721 721 721 720 718 717 718 718 717 716 715 715 715 715 715 715 715 715 715 715 715 715 715 714 714 713 713 712 711 710 710 709 709 709 709 709 709 710 710 710 711 711 710 710 709 709 709 709 709 708 707 707 706 705
721 720 720 720 720 720 720 720 721 722 722 722 722 722 723 723 723 722 722 722 722 721 721 721 721 720 720 719 719 719 719 719 719 720 719 718 717 716 716 716 716 714 713 714 714 714 714 714 713 714 714 714 714 714 713 713 713 712 711 710 709 709 708 708 708 708 708 708 708 709 709 709 709 709 709 709 708 708 708 707 707 706 706 705 704 704
718 717 717 717 717 717 718 718 718 719 719 720 720 720 721 721 721 720 720 720 720 720 720 720 719 719 718 719 718 717 717 718 718 718 718 717 715 714 714 715 714 713 712 712 713 713 712 712 712 712 712 712 712 712 712 711 711 710 710 709 708 708 707 707 707 707 707 707 707 707 708 708 708 708 708 707 707 706 706 706 705 705 704 703 703 702
715 714 714 714 714 715 715 715 716 716 717 717 718 718 719 719 719 719 719 719 719 719 719 719 718 717 717 717 716 716 715 716 716 716 716 716 714 713 713 713 713 712 711 711 711 711 711 710 710 710 710 710 710 710 710 710 709 709 709 708 707 706 706 705 705 705 705 705 705 706 706 706 706 706 706 706 705 705 704 704 704 703 703 702 701 700
712 712 712 712 712 713 713 713 713 714 714 715 715 715 716 717 717 717 716 716 717 718 718 717 716 716 715 715 714 714 714 714 714 714 714 715 714 712 711 712 712 711 710 710 710 710 709 709 708 708 708 708 708 709 708 708 708 708 707 706 706 705 705 704 704 704 704 704 704 704 705 705 705 705 705 704 704 704 703 703 702 702 701 700 699 698
710 710 710 710 710 710 710 710 710 711 712 712 713 713 713 714 715 714 714 714 715 716 715 715 715 714 714 713 712 712 712 712 712 712 713 714 712 711 710 710 711 710 710 709 709 708 708 707 706 706 706 706 706 706 707 706 706 706 706 705 705 704 704 703 703 703 703 703 703 703 704 704 704 704 703 703 703 702 702 701 701 700 699 699 698 697
709 708 708 708 708 708 709 708 708 708 709 710 710 710 710 711 711 711 710 712 714 714 713 713 713 712 712 711 711 711 710 709 709 710 711 712 711 709 709 709 709 709 710 709 708 706 706 705 704 704 704 704 704 705 705 705 705 705 704 704 704 703 702 702 702 702 702 702 702 702 702 702 702 702 702 702 701 701 700 700 700 699 698 697 696 695
706 706 705 705 705 706 706 706 706 706 706 707 708 708 707 707 707 707 708 709 711 711 710 710 710 710 710 710 710 709 708 707 707 708 709 710 709 708 708 708 708 709 709 709 708 706 704 703 702 703 703 703 704 704 704 704 704 704 703 703 702 702 701 701 701 700 700 700 701 701 701 701 701 701 700 700 700 700 699 699 699 698 697 696 695 694
703 703 703 702 703 703 704 704 704 704 704 704 705 705 705 704 704 705 705 706 707 708 708 708 708 708 709 709 709 707 705 704 705 706 707 707 707 706 707 707 707 707 708 708 708 707 704 702 701 702 702 703 703 703 703 703 703 703 702 701 701 700 700 700 699 699 699 699 699 699 699 699 699 699 699 699 699 699 698 698 697 697 696 694 694 693
700 700 700 700 700 700 701 701 701 701 701 702 702 702 702 702 702 702 703 703 704 704 705 705 705 706 706 706 705 704 703 703 703 704 705 705 705 705 706 706 706 706 706 707 707 706 705 703 702 702 702 702 702 702 702 702 702 701 701 700 699 699 699 699 698 698 698 698 698 698 698 698 698 698 698 698 698 697 697 697 696 695 694 694 693 692
698 698 697 697 697 697 697 698 698 698 698 699 699 699 699 699 699 699 700 700 701 702 702 703 703 703 703 703 702 702 701 702 702 703 703 704 704 704 704 704 705 705 705 705 705 705 704 703 702 701 701 701 701 701 701 701 701 700 700 699 699 698 698 698 697 697 697 696 696 696 696 696 696 696 696 696 696 696 696 695 695 694 694 693 692 691
695 695 695 695 694 694 694 694 695 695 695 695 695 696 696 696 696 697 697 698 698 699 699 700 700 701 701 701 700 700 700 701 701 701 702 702 703 703 703 703 703 704 704 704 704 704 703 702 702 701 701 700 700 700 700 700 699 699 699 698 698 697 697 697 696 696 695 695 695 694 694 694 694 694 695 695 695 694 694 694 694 693 693 692 691 690
692 692 692 692 692 692 691 692 692 692 692 692 693 693 693 693 694 694 694 695 695 696 696 697 698 698 699 699 699 699 699 699 699 700 700 701 701 701 701 701 702 702 703 703 703 703 702 701 701 701 700 699 699 699 699 698 698 698 697 697 697 696 696 696 695 695 694 694 693 693 693 693 693 693 693 693 693 693 693 693 692 692 692 691 690 690
689 689 689 689 689 689 689 689 689 689 689 689 690 690 690 690 691 691 692 693 693 694 694 695 696 696 697 697 697 697 697 698 698 699 699 699 699 700 700 700 700 701 701 701 701 701 701 700 700 700 700 699 698 697 697 697 697 697 696 696 695 695 695 694 694 694 693 692 692 692 692 692 692 692 692 692 692 692 692 691 691 691 690 690 689 689
686 686 685 685 685 686 685 686 686 686 687 687 687 688 688 688 688 689 689 690 691 692 693 693 694 695 695 696 696 696 696 697 697 697 697 698 698 699 699 699 699 700 700 700 700 700 700 700 699 699 699 698 697 697 696 696 696 695 695 694 694 694 693 693 693 692 692 691 691 690 690 690 690 690 690 690 690 690 690 690 689 689 689 688 688 687
684 683 682 682 682 683 683 683 683 683 684 684 685 685 686 686 687 687 688 689 689 690 691 692 693 694 694 694 695 695 695 696 696 696 696 696 697 697 698 698 698 699 699 699 699 699 699 699 699 698 697 697 696 696 695 695 694 694 693 693 693 692 692 692 691 691 690 690 689 689 689 689 689 689 689 689 689 689 688 688 688 688 687 686 686 685
680 679 679 679 679 679 679 679 680 680 681 682 683 684 684 685 685 686 686 687 688 689 689 690 691 692 693 693 694 694 694 694 695 695 695 695 695 696 696 696 697 697 697 698 698 698 698 698 698 697 697 696 695 694 694 694 694 693 692 692 691 691 690 690 690 690 689 689 688 688 688 688 688 688 688 688 687 687 687 686 686 686 685 684 684 683
678 676 676 676 676 676 676 676 677 679 679 680 681 682 683 684 684 685 685 686 686 687 688 689 690 690 691 692 692 693 693 693 694 694 694 694 694 694 695 695 695 696 696 696 697 697 697 697 696 696 696 695 694 694 693 693 692 692 691 691 689 689 689 689 689 689 688 688 687 687 686 686 686 686 686 686 686 686 685 685 684 684 684 683 682 681
674 674 673 673 673 674 674 674 676 677 678 679 680 681 681 682 683 684 684 685 685 686 687 688 689 689 689 690 691 691 692 692 693 693 693 693 693 693 693 694 694 694 695 695 695 695 695 695 695 695 694 694 694 693 692 691 691 691 691 690 689 688 688 688 688 687 687 686 686 686 685 685 685 685 685 684 684 684 684 684 683 682 682 682 681 680
672 671 670 671 671 672 672 673 674 675 676 677 678 678 679 679 680 681 682 683 684 685 685 686 687 688 688 689 689 689 690 691 691 691 692 692 692 692 692 692 693 693 693 694 694 694 694 694 694 694 693 693 693 692 690 690 689 689 689 689 688 687 686 686 686 686 686 685 685 685 684 684 684 684 683 683 683 683 683 682 682 681 680 680 679 679
669 668 668 669 669 670 671 672 673 674 674 675 675 676 676 677 678 679 680 681 682 683 684 684 685 686 687 687 687 688 689 689 689 690 690 690 691 691 691 691 691 692 692 692 692 692 692 692 692 692 692 692 691 690 689 688 688 688 688 688 688 687 686 684 684 685 684 684 684 684 683 683 682 682 682 682 681 681 681 680 680 679 679 678 678 677
666 666 666 667 668 668 669 669 670 671 671 672 673 674 674 675 676 677 679 679 680 681 682 683 684 684 685 685 686 686 687 688 688 689 689 689 689 689 689 689 689 690 690 691 691 690 691 691 690 690 690 690 690 689 688 687 687 687 687 687 687 686 685 684 684 683 683 683 682 682 682 682 681 681 680 680 680 679 679 679 678 678 677 677 676 675
664 664 664 665 665 666 666 667 667 668 669 669 670 671 672 673 674 675 677 678 679 680 681 682 683 684 684 684 684 685 685 686 687 687 687 688 688 688 688 688 688 689 689 689 689 689 689 689 689 689 689 689 688 688 687 686 686 685 685 685 685 684 684 683 683 683 682 682 681 681 681 680 680 680 679 679 678 678 678 677 676 676 675 675 674 674
662 662 662 663 663 663 664 664 665 666 667 668 669 669 670 672 673 674 675 676 677 678 679 680 681 682 682 683 683 684 684 684 685 685 686 686 686 686 686 686 687 687 687 687 687 688 688 688 688 688 688 687 687 686 686 685 685 684 684 684 684 683 683 682 682 682 681 681 680 680 680 680 679 679 678 677 676 676 676 675 675 674 674 673 673 672
660 660 660 660 660 661 661 662 663 664 665 666 667 668 669 670 671 672 673 674 676 677 678 679 679 680 680 681 681 682 683 683 683 684 684 684 684 685 685 685 685 685 686 686 686 686 686 686 686 686 686 686 685 684 684 684 684 684 683 682 682 682 681 681 680 680 680 680 679 679 679 679 678 678 677 676 675 674 674 673 673 673 672 671 671 670
658 658 658 658 659 659 660 660 661 662 663 664 665 666 667 668 669 671 672 673 674 675 676 677 678 679 679 679 680 680 681 681 682 682 683 683 683 683 683 684 684 684 684 685 685 685 685 685 685 685 685 685 684 683 682 682 682 682 682 681 681 681 680 679 679 679 679 679 679 678 678 678 677 677 676 675 674 673 672 671 671 670 670 670 669 668
656 656 656 656 657 657 658 659 659 660 661 663 664 665 666 667 668 669 670 671 672 674 674 675 676 677 678 678 679 679 679 680 680 681 681 681 681 681 682 682 683 683 684 684 684 684 684 684 684 684 684 684 683 682 681 680 680 680 680 680 680 679 679 678 678 678 678 678 677 677 677 677 676 676 675 674 673 671 670 669 669 668 668 668 668 667
653 654 654 654 655 655 656 657 658 659 659 661 662 663 664 665 666 667 669 670 671 672 673 674 674 675 676 676 677 678 678 679 679 679 679 680 680 680 680 681 681 682 683 683 683 683 683 683 682 682 681 681 681 680 679 679 679 679 679 679 679 678 678 677 677 676 677 676 676 676 676 675 675 675 675 674 672 670 668 667 666 666 666 666 666 665
651 652 652 653 653 654 654 655 656 657 658 659 660 662 663 664 665 666 667 668 669 670 671 672 673 674 674 675 675 676 677 677 678 678 678 678 679 679 679 680 680 681 682 682 683 683 682 682 681 680 679 679 679 678 678 678 677 678 677 677 677 677 676 676 675 675 675 675 675 675 674 674 674 674 674 673 672 669 667 665 664 664 664 664 664 664
Wind_Speed
18 20 22 23 23 23 23 24 24 23 23 23 23 23 24 24 23 22 21 21 21 22 22 23 24 24 25 26 27 28 28 28 27 25 24 24 24 24 24 23 22 22 22 21 21 21 21 21 21 21 20 20 19 18 17 17 17 17 16 16 16 16 16 16 15 15 15 15 15 16 17 18 19 20 21 21 21 21 21 21 20 20 20 20 20 19
18 19 20 21 22 23 24 24 23 22 21 20 20 20 20 20 21 21 21 21 21 22 22 23 24 24 25 26 26 27 27 27 26 25 24 24 25 25 24 23 22 22 21 21 21 22 22 22 21 21 21 20 20 19 18 17 17 17 17 17 17 17 17 17 17 17 17 17 17 18 18 19 19 19 20 20 20 20 19 19 19 19 19 18 18 17
18 18 18 18 19 21 22 22 22 21 19 19 18 18 18 19 19 20 21 21 22 22 23 23 24 24 25 25 26 26 26 26 25 25 25 25 25 25 24 23 22 21 21 21 22 22 23 23 23 22 21 21 20 19 18 17 17 17 17 17 17 17 17 17 17 17 17 17 18 18 18 18 19 19 19 19 19 19 18 18 18 18 18 17 17 16
18 18 19 18 19 21 21 20 19 19 19 19 20 20 20 20 21 22 22 22 23 24 24 25 25 25 26 26 26 26 26 25 25 25 26 26 25 25 23 22 22 21 21 21 22 23 23 23 22 21 21 20 19 18 18 17 17 17 16 16 16 16 16 16 16 17 17 17 17 18 18 18 18 18 18 18 19 19 18 18 18 18 18 17 16 15
18 18 19 18 19 19 20 19 18 19 20 21 22 23 24 24 25 25 25 25 26 26 27 27 27 27 27 27 26 26 25 25 26 26 27 26 25 24 23 22 21 21 21 21 22 22 22 21 21 20 19 19 18 18 17 17 17 17 17 17 17 17 17 17 17 17 17 17 18 18 18 18 18 18 19 19 19 19 19 19 18 18 17 17 16 15
20 19 19 18 19 19 19 18 19 19 20 22 24 26 27 28 28 28 28 28 28 28 28 28 28 28 28 27 27 26 25 26 26 27 27 26 25 23 22 21 21 21 21 21 21 21 20 20 20 19 19 18 18 17 17 17 17 17 17 18 18 18 18 18 18 18 18 18 18 18 18 19 19 19 19 20 20 20 19 19 18 17 17 16 15 15
21 20 19 19 19 20 19 20 20 21 22 23 25 27 28 28 29 28 28 28 28 28 28 29 29 28 28 28 27 26 26 26 27 28 27 26 24 23 22 21 21 20 20 20 20 20 20 20 19 19 19 18 18 18 18 18 18 18 19 19 19 19 19 19 19 19 19 19 19 19 19 19 20 20 20 20 20 19 19 18 17 17 16 15 15 15
20 20 19 19 19 20 20 21 22 23 23 24 24 25 26 27 27 26 26 26 26 26 27 27 28 28 28 27 27 26 26 26 27 27 27 25 24 22 21 21 21 21 20 20 20 20 20 19 19 19 19 19 19 19 19 19 19 19 20 20 20 20 20 20 20 19 19 19 20 20 20 20 20 20 20 20 19 19 18 18 17 16 16 15 15 15
19 19 19 19 18 18 19 21 22 22 22 22 22 22 22 22 22 23 22 23 23 24 24 25 26 27 27 26 25 25 25 26 26 26 25 24 23 22 21 21 21 21 21 21 20 20 20 20 19 19 19 19 20 20 20 20 20 21 21 21 21 21 21 20 20 20 20 20 20 20 20 20 20 20 20 19 19 19 18 18 17 17 16 16 15 15
21 20 20 20 20 19 18 20 21 20 19 19 19 19 19 20 20 20 20 21 22 23 23 24 25 25 26 25 24 24 24 25 25 24 24 23 22 21 21 20 20 21 21 21 21 21 20 20 20 20 20 20 21 21 21 21 21 22 22 22 21 21 21 20 20 20 20 21 21 21 21 21 20 20 20 19 19 19 18 18 18 17 17 17 16 16
21 21 20 20 20 19 19 20 20 18 17 17 17 18 19 20 19 19 20 21 22 22 23 23 24 24 25 24 24 23 22 23 23 23 22 22 21 21 20 21 21 21 21 21 21 21 22 22 22 22 22 22 22 22 22 22 22 22 22 22 21 21 21 21 21 21 21 21 21 21 21 21 20 20 20 19 19 19 19 19 19 18 18 18 18 17
20 19 19 18 18 18 18 18 18 17 17 16 16 16 18 20 20 19 19 21 22 22 22 23 24 24 24 23 23 22 21 22 22 22 22 21 21 21 21 21 21 22 22 22 22 23 23 23 23 23 23 23 22 22 22 22 22 22 22 21 21 21 21 21 21 21 21 21 21 21 21 21 21 20 20 20 20 19 19 19 19 19 19 19 19 18
20 18 17 17 17 18 18 17 16 16 16 16 16 16 17 19 19 20 20 22 23 23 22 22 23 23 23 22 21 20 20 21 22 22 22 22 22 22 22 22 22 23 23 23 24 24 24 24 23 23 23 22 22 22 21 21 21 21 21 21 21 21 21 21 21 21 21 20 20 20 21 21 21 21 20 20 20 20 20 20 20 20 20 19 19 18
19 17 16 16 16 17 18 17 16 16 16 17 18 20 21 21 21 21 21 22 23 23 23 23 22 22 22 21 20 19 19 21 21 22 23 23 24 24 23 23 24 24 23 24 24 24 24 23 23 23 22 21 21 21 20 20 20 20 20 21 21 20 20 20 20 19 20 20 20 20 21 21 21 21 20 20 20 20 20 20 19 19 19 19 18 18
18 17 15 14 15 16 17 17 17 17 18 19 20 21 23 23 22 22 21 20 21 22 22 22 22 21 21 21 20 19 19 21 22 23 24 25 25 25 24 24 24 24 23 24 24 24 22 22 22 21 21 20 20 20 20 20 20 20 20 20 20 19 19 18 18 19 19 19 20 20 20 20 20 20 19 19 19 19 19 18 18 18 18 18 18 18
19 19 16 15 16 18 19 18 17 17 19 19 20 20 20 21 21 21 20 20 20 19 17 17 17 17 18 19 19 20 20 22 23 24 24 26 26 26 24 24 24 23 23 23 23 23 21 21 21 21 21 21 21 20 20 20 20 20 20 19 18 18 18 18 18 18 19 20 20 20 20 19 19 18 18 18 17 17 17 17 18 18 18 18 18 18
19 19 18 17 17 19 21 20 19 19 18 18 19 19 19 19 19 19 19 19 18 16 15 14 9 6 9 13 16 18 19 22 23 24 24 25 26 25 24 23 22 23 23 23 23 22 21 21 21 21 21 21 21 21 21 21 21 20 19 19 18 18 18 18 19 19 20 20 20 19 18 18 17 17 16 16 16 17 17 17 18 18 18 18 18 18
18 18 18 18 19 20 22 21 20 20 20 19 19 20 20 20 20 20 20 19 18 16 15 14 11 7 6 11 12 13 16 19 22 23 22 24 24 23 21 21 21 21 22 22 22 22 21 21 21 21 22 22 22 22 22 21 21 20 20 19 19 19 19 20 20 20 20 19 18 17 16 16 16 16 16 16 17 17 18 18 19 19 19 19 19 19
20 20 18 18 19 20 21 21 21 20 21 20 19 19 20 20 20 20 20 20 19 18 17 16 15 15 14 16 16 15 15 16 19 21 19 21 22 21 19 18 19 20 21 21 22 21 21 21 21 21 21 22 22 22 22 21 21 21 21 20 20 20 20 20 20 19 18 17 16 15 15 15 16 16 17 17 18 18 19 19 19 19 19 19 19 19
23 22 22 21 20 19 20 21 22 22 21 21 20 20 20 20 20 20 20 20 20 21 20 19 18 19 19 19 18 17 15 14 16 19 20 20 20 19 17 17 18 19 20 21 21 21 21 21 21 21 21 21 22 22 22 22 22 22 21 21 21 20 20 20 19 17 16 15 15 15 16 16 17 17 18 18 19 19 19 19 19 19 19 19 19 19
24 25 26 24 21 19 20 20 21 22 21 21 20 20 19 19 19 19 20 20 20 21 20 19 20 22 21 21 19 17 16 14 16 18 18 17 18 18 17 17 17 19 20 22 22 21 21 20 20 20 20 21 21 22 22 22 22 22 21 21 20 20 19 18 17 15 15 15 15 16 16 17 17 18 18 18 19 19 19 19 19 18 18 18 18 18
27 27 28 26 24 22 22 22 22 22 21 20 20 19 18 17 18 19 21 21 21 21 20 20 22 23 22 20 19 18 17 15 16 16 14 12 14 17 17 17 17 18 20 22 22 21 20 20 20 19 19 19 20 21 21 21 21 21 20 20 20 19 18 17 15 14 14 15 16 16 17 17 17 17 18 18 18 18 18 18 18 18 18 18 18 18
32 31 30 28 27 26 26 25 24 23 21 20 21 21 20 19 19 20 21 21 22 23 23 23 23 23 22 21 20 19 17 16 15 15 12 8 11 15 15 15 16 18 20 22 21 20 19 19 18 18 18 18 19 20 20 20 20 20 20 20 20 19 18 15 14 14 14 15 16 17 17 17 17 17 18 18 18 18 18 18 18 18 18 18 18 18
36 34 33 31 30 29 29 28 27 26 24 23 22 22 22 22 22 23 22 22 22 22 22 22 21 20 20 20 19 18 17 16 16 16 14 11 13 15 15 15 15 17 20 21 20 19 18 18 18 18 18 18 19 20 20 19 19 19 20 20 20 19 17 15 14 14 15 16 16 17 17 16 16 17 17 18 17 17 17 17 18 18 18 18 18 19
36 35 34 34 33 33 32 32 31 29 28 26 25 25 24 24 24 24 24 23 22 20 18 17 16 16 17 17 17 18 18 18 18 17 16 12 13 16 16 15 15 16 18 19 18 17 17 18 18 18 19 19 20 20 20 19 19 19 20 20 19 18 16 14 14 14 15 16 16 17 16 16 16 17 17 18 17 17 17 17 18 18 18 18 19 19
36 36 36 36 35 35 35 35 34 33 31 30 28 27 26 26 25 25 23 22 20 18 15 13 13 14 17 16 16 18 19 19 20 20 18 13 12 14 15 14 15 15 16 16 17 17 17 18 19 20 20 20 20 20 19 18 18 19 19 19 19 17 15 14 14 15 16 16 17 16 16 16 17 17 18 18 17 17 17 17 18 18 18 18 18 19
37 37 37 36 36 35 35 35 34 33 32 30 30 29 28 26 24 22 20 20 19 18 15 11 9 10 14 15 16 17 19 20 21 21 21 17 14 12 13 13 13 14 14 15 16 17 18 19 21 22 22 21 20 19 18 17 17 18 18 18 17 16 14 14 14 15 16 17 17 17 16 17 17 18 18 18 17 17 17 17 17 18 18 18 18 19
35 36 35 35 34 33 33 33 33 32 31 29 29 28 27 26 23 20 19 20 20 19 16 12 8 7 9 12 14 16 18 19 21 21 20 17 13 11 13 13 12 12 12 13 15 17 19 21 22 23 22 20 18 16 15 16 16 17 17 16 15 13 12 13 14 15 16 17 17 16 16 17 18 18 18 18 17 17 17 17 17 17 17 18 18 19
34 34 34 34 33 32 31 32 32 31 30 29 28 27 27 26 25 24 23 23 21 19 17 16 14 12 12 14 15 15 16 19 20 20 18 15 12 11 13 13 12 11 10 10 12 14 17 19 20 19 18 15 13 13 13 14 15 15 15 14 12 11 10 11 12 13 14 15 15 16 16 17 17 18 18 17 17 17 17 17 17 17 17 18 19 19
33 33 34 34 34 33 32 32 32 31 30 29 28 27 28 28 28 28 28 26 22 20 18 18 18 17 15 13 10 9 12 17 20 19 18 15 12 11 13 12 12 10 8 5 5 6 9 11 11 11 10 10 10 11 12 13 13 13 13 12 11 10 9 10 10 11 12 13 14 15 16 16 17 17 17 17 17 17 17 16 16 17 17 18 19 19
30 31 31 32 32 32 32 33 33 32 31 30 29 28 28 29 29 29 29 27 25 23 21 19 18 18 16 9 4 3 5 13 17 18 18 17 14 12 12 11 11 11 9 6 2 1 2 4 4 5 6 7 8 9 10 10 11 11 11 11 11 11 11 10 10 11 12 13 14 15 16 16 16 16 16 16 16 16 16 16 16 16 17 17 18 19
28 28 28 29 30 30 31 32 32 32 32 31 30 30 29 29 29 29 29 29 27 25 23 21 20 19 18 14 9 6 5 9 14 17 17 16 15 14 13 12 10 10 11 11 7 2 1 2 1 3 5 6 7 8 9 9 10 11 11 12 13 13 13 12 12 12 13 14 15 15 16 16 16 16 15 15 15 15 15 15 15 15 15 16 17 18
28 28 28 28 28 29 30 30 30 31 31 31 30 30 30 30 30 30 30 30 29 27 24 22 21 19 19 19 18 15 13 12 12 14 15 14 12 11 12 12 11 11 11 12 11 9 6 5 4 4 6 7 9 10 10 10 11 11 12 13 14 14 14 13 13 14 15 15 16 16 16 16 16 15 15 15 15 15 14 14 14 14 14 15 16 18
26 26 27 28 28 29 30 30 30 30 30 30 30 30 31 30 31 31 31 30 29 28 26 25 22 21 19 18 18 18 17 14 13 13 14 14 12 10 10 12 12 11 10 10 11 11 10 10 9 9 9 11 12 12 12 12 12 12 12 13 14 14 14 14 14 15 16 16 17 17 16 16 16 16 16 15 15 15 15 14 13 13 13 14 15 17
25 25 27 27 27 27 28 28 29 29 30 30 30 30 30 30 31 31 31 30 30 29 28 27 25 23 21 19 17 17 17 16 15 14 13 14 14 12 11 12 13 12 10 9 9 9 9 10 11 11 10 11 12 13 13 12 12 11 10 10 11 12 12 12 13 14 15 15 16 16 16 17 17 17 17 17 16 16 15 14 13 13 13 13 14 16
24 25 25 25 25 25 26 26 27 28 28 28 28 29 29 30 30 30 30 30 29 29 29 28 27 25 23 21 19 18 17 16 15 14 14 14 14 14 12 11 12 13 11 11 10 8 7 8 9 10 10 9 10 11 11 11 9 9 9 9 9 10 10 10 11 12 13 15 16 16 17 17 17 17 17 17 16 15 14 14 14 14 14 15 15 16
23 23 24 24 24 24 24 25 26 27 27 27 27 27 28 28 29 29 29 28 28 28 28 27 26 25 23 22 20 18 17 15 14 14 13 13 13 14 13 12 12 12 12 12 10 9 8 7 8 9 9 9 9 8 9 10 10 10 11 11 11 11 11 12 12 13 14 16 17 17 17 17 17 17 17 16 16 16 16 16 16 17 17 17 17 16
23 23 23 24 24 24 24 25 25 26 27 27 26 26 26 26 27 27 27 27 27 27 26 26 25 24 23 21 20 19 17 14 13 13 13 12 13 13 14 13 12 12 12 12 11 10 9 7 5 4 5 8 10 11 11 11 12 12 13 14 14 15 15 15 15 15 16 16 16 16 16 16 16 17 17 18 18 18 18 19 19 18 18 18 17 17
21 22 23 24 25 24 24 24 25 26 27 27 26 26 25 25 25 25 25 26 26 26 26 25 24 24 23 22 21 20 18 16 15 14 13 13 13 13 14 14 14 13 13 13 12 12 11 9 7 5 5 7 10 12 12 12 12 13 14 15 16 16 15 14 13 13 14 15 15 16 17 17 17 17 18 18 18 18 19 19 18 18 18 18 18 18
21 22 23 24 25 25 25 25 26 26 26 26 26 25 25 24 23 23 23 24 24 25 25 24 24 23 23 22 22 21 20 19 18 16 15 15 14 15 15 15 15 15 14 14 13 13 13 12 12 12 11 10 10 12 12 13 13 13 13 13 13 13 12 12 12 13 14 14 16 16 16 16 16 16 17 17 17 17 18 18 18 18 18 18 19 19
23 23 24 24 24 25 26 26 26 25 25 25 24 24 23 23 22 20 21 21 22 22 22 22 22 22 22 22 21 21 20 20 20 19 19 18 17 17 17 17 16 16 15 15 14 14 14 14 13 13 13 13 13 14 14 14 13 13 12 12 13 14 14 14 14 14 14 14 14 14 14 15 15 16 16 17 17 17 18 18 19 19 19 19 19 19
24 24 24 24 24 24 25 25 24 24 24 24 23 23 23 23 22 21 20 19 20 20 20 20 20 19 19 19 20 20 20 20 20 20 21 20 20 20 19 19 18 17 16 15 15 15 15 15 14 14 14 14 14 14 14 14 14 13 12 13 14 16 16 15 13 12 12 12 12 13 14 15 16 17 17 18 18 19 19 19 19 20 19 19 20 20
23 24 24 24 23 23 24 23 23 23 24 24 23 24 25 25 25 23 21 19 19 19 20 20 19 18 17 16 17 18 19 19 19 19 20 20 20 20 20 20 20 19 17 16 15 15 15 15 15 15 15 15 14 14 14 14 14 13 13 13 14 13 12 12 12 11 12 13 14 15 16 17 17 18 19 19 19 19 19 20 20 20 21 21 22 23
25 24 23 23 23 22 22 22 23 23 24 23 23 24 25 26 25 24 22 20 19 19 19 19 18 17 16 15 15 16 17 17 17 17 17 17 17 17 17 18 18 18 18 18 16 14 14 14 15 15 15 15 15 14 14 13 13 13 14 14 14 13 13 13 14 15 16 17 18 18 17 17 18 18 19 19 19 19 20 20 21 22 23 23 24 24
24 23 22 21 21 21 21 22 23 24 24 24 24 24 24 25 25 24 22 20 20 19 19 18 17 15 13 13 13 14 15 16 16 16 15 15 14 14 14 15 15 16 17 18 18 16 14 13 14 14 14 14 14 14 13 13 14 15 15 15 14 14 16 16 17 17 18 18 19 18 17 17 17 18 19 19 19 20 20 21 22 23 24 24 24 23
23 22 21 20 20 21 22 23 23 23 23 23 23 23 24 24 24 24 23 21 20 19 18 19 17 14 12 12 12 12 13 14 15 15 15 14 14 13 13 14 14 15 17 18 18 18 17 16 14 13 12 12 13 14 14 14 15 15 16 15 15 15 16 17 17 17 17 18 18 17 16 16 16 17 18 18 19 20 21 22 22 23 23 23 22 22
21 20 20 20 20 21 21 22 22 21 21 21 21 22 22 23 23 23 22 21 20 19 18 18 17 15 14 13 12 11 11 12 13 14 15 15 15 15 15 15 15 15 16 17 17 18 18 17 16 14 12 11 12 14 16 16 15 15 15 15 15 15 15 16 17 17 17 17 17 16 16 15 15 16 17 18 19 21 21 22 22 22 21 21 21 21
21 20 20 20 20 20 20 20 21 20 20 20 20 21 22 22 23 22 21 21 20 19 17 16 16 15 14 14 13 13 13 13 13 13 14 15 16 17 17 17 17 16 16 16 16 16 16 16 15 15 15 14 14 15 16 16 15 15 15 15 15 15 15 16 17 17 16 16 15 15 14 14 14 15 17 18 19 20 21 22 22 21 21 20 20 20
22 21 20 20 20 20 19 20 20 20 20 20 20 20 21 22 23 22 21 20 20 18 17 16 15 14 13 13 14 14 14 14 13 13 13 14 15 17 17 18 17 16 15 14 13 13 13 14 15 16 17 18 18 18 18 17 16 16 16 16 15 15 16 16 17 16 15 15 14 13 13 14 15 16 17 18 19 21 22 22 22 21 20 19 19 18
21 21 20 20 20 20 20 20 20 20 20 20 19 19 19 20 22 22 21 20 20 18 17 16 15 14 13 13 13 14 14 13 13 12 12 13 14 15 16 16 15 13 11 10 9 9 10 12 13 15 16 17 18 19 19 18 17 17 16 16 16 16 15 16 15 15 14 13 13 14 14 15 16 16 17 17 19 20 22 22 22 21 19 17 16 16
20 20 20 20 20 20 20 20 21 21 20 20 20 19 19 19 20 20 20 19 18 18 17 17 16 15 14 13 13 14 14 13 13 13 13 14 14 15 15 14 13 11 8 6 5 6 6 7 8 10 12 12 13 14 16 17 17 16 15 15 15 14 14 14 13 13 13 13 14 15 16 16 17 16 16 16 17 18 19 20 20 19 18 16 16 16
Wind_Direction
277 279 281 284 287 288 287 289 291 291 291 292 293 294 294 295 295 295 293 291 289 288 288 288 288 288 288 287 287 287 287 286 286 285 285 287 288 288 286 284 282 280 280 281 282 283 284 284 283 283 283 283 282 281 279 277 274 272 270 269 267 266 264 264 264 264 265 266 266 266 266 267 269 271 273 275 277 278 279 280 280 281 281 281 282 283
279 280 281 282 283 284 286 287 288 288 288 288 289 290 290 292 293 293 292 291 290 289 288 288 287 287 286 286 285 285 284 283 282 282 283 285 287 287 285 282 279 277 277 278 278 279 280 281 281 282 282 282 281 280 279 277 274 272 270 269 268 267 266 266 266 266 267 268 269 269 270 272 273 275 276 277 278 279 279 280 280 281 282 283 284 285
280 281 280 280 281 282 284 285 286 286 286 287 287 287 287 289 290 291 291 291 290 290 289 288 288 287 287 286 284 283 282 281 280 281 283 285 285 285 283 279 276 273 272 272 273 274 276 277 279 279 280 279 279 278 277 275 273 272 271 270 270 270 270 270 270 270 271 271 272 273 274 275 276 277 277 278 278 279 279 280 280 281 282 283 284 285
277 277 277 279 280 281 282 283 285 286 288 289 290 290 291 292 293 293 293 292 292 291 290 290 290 289 288 286 283 281 280 279 280 281 283 284 284 283 280 277 274 271 269 268 269 270 272 274 275 276 276 275 274 274 273 273 272 272 271 271 272 272 272 272 272 272 273 273 274 275 275 276 277 277 277 278 278 278 279 279 280 280 281 282 283 284
272 272 274 276 277 277 279 281 284 287 289 291 292 293 294 294 295 295 294 293 291 290 289 289 289 288 286 284 281 279 278 279 280 282 283 284 282 280 278 275 273 271 270 268 268 269 270 272 272 272 271 270 270 269 269 269 270 270 271 272 273 273 273 274 274 275 275 275 276 276 277 277 277 277 278 278 278 278 278 279 279 280 280 281 282 283
271 270 271 270 270 271 274 278 282 285 288 290 291 292 292 293 293 292 291 290 289 289 288 288 287 286 284 281 279 278 277 278 279 281 282 282 280 278 275 273 272 271 270 269 269 269 269 269 269 268 267 266 266 266 266 267 268 270 271 272 274 275 276 277 278 278 279 279 279 279 279 279 279 279 280 280 280 279 279 279 279 279 280 280 281 282
271 269 267 264 264 265 269 273 278 282 285 287 288 289 289 289 289 288 287 287 287 288 288 287 286 284 281 279 277 276 276 276 278 279 279 279 277 275 272 271 270 269 269 268 268 268 268 268 267 266 265 264 264 264 265 266 268 269 271 272 274 275 277 279 280 281 281 281 281 281 281 281 281 281 281 281 281 281 280 280 280 279 279 280 280 280
270 269 265 263 264 267 269 271 274 278 281 283 284 285 285 285 285 285 285 285 286 286 286 285 284 281 278 276 275 274 273 273 274 275 276 275 274 272 270 268 267 267 267 267 268 268 268 267 266 265 265 264 264 265 265 266 267 269 270 272 274 276 277 279 280 280 281 281 281 281 282 282 282 282 282 281 281 281 280 280 279 278 278 278 279 280
269 270 268 266 267 270 273 273 273 275 277 277 277 277 278 280 281 282 283 283 283 282 282 280 279 277 276 275 274 272 270 269 270 271 272 272 270 269 267 266 265 265 266 266 267 267 267 267 266 266 266 266 266 266 267 267 268 269 270 272 274 275 277 278 279 279 279 280 280 281 281 281 280 280 279 279 279 278 278 278 277 277 276 277 278 279
268 269 270 269 268 269 271 273 274 274 274 274 272 271 270 272 276 281 284 283 282 281 278 275 272 272 273 273 272 269 267 266 266 267 268 268 267 266 266 265 265 266 266 267 267 267 267 267 267 267 267 267 267 267 268 268 268 269 271 272 274 275 276 277 277 278 278 279 279 279 279 279 278 277 277 276 276 276 276 276 276 275 275 274 275 276
267 268 269 270 270 268 268 269 272 273 272 272 271 269 268 266 269 275 281 283 283 281 277 272 269 268 268 269 269 267 263 261 261 262 263 264 264 265 265 266 267 267 268 267 267 267 267 267 267 268 268 269 269 268 268 268 268 269 271 272 274 275 275 276 276 277 277 277 277 277 276 276 275 275 274 274 274 274 274 274 274 274 274 274 274 275
266 267 268 267 268 268 267 267 269 269 268 268 267 266 264 264 264 266 270 276 280 280 278 273 270 267 266 266 266 263 259 255 254 256 258 260 261 262 264 265 266 267 267 267 267 266 266 267 268 268 269 269 269 268 267 267 268 269 271 272 273 274 275 275 276 276 276 276 275 275 274 274 274 273 273 273 273 273 273 273 274 274 275 275 276 276
264 265 265 264 263 263 264 266 268 266 262 258 257 259 263 265 265 264 263 266 270 273 274 273 270 268 266 265 263 259 255 252 251 252 254 255 257 259 260 261 262 263 264 265 265 265 266 266 267 267 268 268 267 267 266 266 267 269 270 271 272 273 274 274 275 274 274 273 273 272 272 272 272 272 272 272 272 272 272 273 273 274 275 275 276 276
262 262 262 261 258 258 260 262 263 262 257 253 252 257 262 265 264 262 260 261 264 267 269 268 268 267 265 262 259 254 250 249 249 250 252 253 255 257 259 259 260 262 263 262 262 263 265 266 266 267 267 267 267 267 267 267 268 269 270 270 272 273 273 274 273 273 272 271 271 271 271 271 271 271 271 271 271 271 272 272 272 273 273 274 274 275
260 261 260 258 256 256 258 258 258 258 257 256 256 257 260 260 258 256 255 258 262 264 265 264 265 265 263 260 256 252 247 245 246 247 250 252 255 257 258 258 260 262 262 262 262 263 265 266 267 268 269 269 269 269 269 269 269 269 270 271 272 273 273 273 272 272 271 271 271 271 271 271 271 271 270 270 270 270 270 270 270 270 270 271 272 273
256 257 256 256 257 258 259 258 258 259 261 261 260 258 256 253 252 251 250 255 260 262 260 261 264 266 265 261 256 251 246 243 243 245 248 252 254 256 256 256 258 259 261 261 262 264 266 266 268 269 271 272 272 273 272 271 271 271 271 272 273 273 274 273 272 272 272 271 271 271 271 271 270 269 268 268 267 267 267 267 268 268 268 269 270 272
252 251 252 254 256 258 260 261 260 261 264 265 264 261 256 252 250 249 247 250 254 257 255 255 259 269 270 265 258 251 245 241 241 242 246 250 254 256 255 254 254 255 258 259 261 263 265 265 267 269 271 272 273 273 273 272 272 271 272 272 273 274 274 274 274 273 273 272 271 270 269 268 267 265 265 264 264 264 264 265 266 267 268 269 271 272
246 245 247 251 254 257 259 260 260 261 263 265 266 265 263 258 254 250 247 246 247 250 252 252 252 254 265 271 267 256 245 241 238 238 242 247 252 255 254 252 251 253 255 257 260 262 263 264 265 267 269 270 271 270 270 269 269 269 271 272 274 275 275 275 275 274 272 270 268 266 264 263 262 261 261 261 261 262 264 265 267 268 270 271 273 274
248 246 245 247 251 254 256 256 257 257 258 260 262 264 262 259 254 249 245 243 243 245 248 251 253 254 257 265 268 265 255 247 238 234 237 244 250 253 252 249 248 250 253 256 259 261 263 264 266 267 267 268 267 266 265 264 264 266 269 272 274 275 276 276 275 272 269 265 262 260 259 258 258 258 259 260 262 265 267 269 270 271 273 273 274 276
251 249 247 248 250 252 253 253 253 253 253 254 256 258 258 256 252 247 243 242 243 244 246 249 252 254 257 261 264 264 259 251 237 231 232 241 248 251 250 248 247 249 252 257 261 264 264 265 266 267 266 265 264 262 261 260 261 264 267 271 273 275 276 276 273 268 262 258 255 254 254 254 256 258 261 264 268 271 273 274 274 274 274 275 276 276
251 250 249 248 248 250 252 251 251 251 251 251 251 251 251 252 249 246 244 244 245 245 245 247 251 254 258 263 265 265 259 249 234 226 229 240 248 251 251 250 250 252 255 260 264 266 266 267 267 267 265 263 261 260 259 260 262 265 268 270 273 276 278 276 270 261 255 251 249 250 251 254 257 262 266 272 276 277 278 277 276 275 275 275 276 277
249 250 249 247 246 248 251 252 254 254 251 248 245 244 246 247 247 247 248 246 245 245 246 247 251 255 258 261 262 261 257 249 235 225 226 242 252 254 254 253 253 255 257 262 267 269 268 267 267 266 265 262 261 260 261 262 264 266 268 270 274 277 279 274 264 254 248 245 246 248 252 256 261 268 275 281 282 282 279 277 276 275 276 277 278 279
248 249 250 248 247 247 250 252 253 252 249 245 243 243 246 247 248 249 250 248 247 248 249 251 253 255 256 256 257 256 252 245 236 229 227 239 254 257 257 257 256 257 258 263 268 269 267 266 265 265 263 261 260 260 262 264 265 266 267 269 273 277 278 270 258 247 242 242 245 249 254 259 268 277 285 287 287 283 280 277 276 277 277 278 280 281
247 248 249 249 248 248 250 251 251 249 247 245 245 246 248 250 252 253 253 252 251 251 252 253 253 254 255 255 254 251 246 241 233 228 228 241 256 260 261 261 259 258 260 265 268 268 266 264 263 261 259 257 258 260 263 264 264 263 263 266 271 275 275 266 252 242 240 242 246 251 256 264 276 285 290 290 288 284 280 279 278 278 279 280 281 282
245 246 248 248 248 249 250 251 251 250 248 247 247 248 250 252 253 253 253 252 250 250 250 250 251 251 252 252 250 247 243 240 235 229 227 240 256 261 263 261 258 258 260 265 267 266 264 262 260 258 256 255 257 261 264 263 261 258 259 263 269 273 272 261 247 240 240 243 247 252 259 271 282 289 292 291 288 285 282 281 280 280 281 282 283 284
246 246 247 248 249 250 251 252 252 251 250 249 249 249 250 251 252 251 249 247 246 246 245 245 246 248 249 248 247 245 243 240 237 234 231 239 255 262 263 260 257 256 259 263 264 264 262 261 260 259 258 258 261 264 265 263 258 255 256 261 268 272 269 256 245 240 240 244 248 254 263 276 285 290 291 291 289 286 284 283 282 283 284 285 286 286
249 248 249 249 249 250 251 251 251 251 250 250 249 248 248 249 248 246 242 242 241 241 239 239 243 247 249 248 247 246 244 239 237 237 236 238 248 259 260 258 255 254 258 262 263 263 263 262 263 263 264 266 267 266 264 260 255 253 256 263 269 272 265 253 244 241 242 246 251 258 269 279 286 289 290 291 290 287 285 285 286 286 287 288 287 286
251 250 250 250 250 250 250 251 251 250 249 247 246 245 245 243 240 238 237 239 239 238 236 236 237 244 249 248 249 249 245 238 235 235 235 232 237 251 255 255 253 253 258 264 267 267 266 266 267 269 270 270 268 264 259 255 253 255 260 267 273 273 263 252 246 245 246 250 256 265 274 280 285 288 290 291 290 288 286 286 286 287 287 287 286 286
251 251 251 251 250 251 251 252 252 251 248 244 242 241 241 239 236 235 238 240 239 236 235 236 237 241 246 249 251 251 244 236 234 232 229 223 230 246 252 254 253 252 258 269 274 273 268 266 267 268 269 267 263 256 251 251 253 259 265 273 277 276 267 257 251 251 254 258 264 270 276 280 284 287 290 290 290 289 287 286 286 286 286 286 287 288
250 250 250 250 250 250 252 253 254 252 249 243 239 238 238 238 237 238 240 241 237 232 234 237 238 239 242 247 253 252 243 235 233 229 221 216 223 241 250 251 249 247 248 262 284 285 272 265 260 258 258 256 251 248 248 252 258 265 272 279 282 282 278 271 266 263 263 265 268 272 276 280 284 287 289 289 288 287 287 286 286 286 286 287 288 290
249 249 249 249 248 248 249 251 252 251 248 243 239 236 236 237 237 238 239 238 234 232 233 235 236 235 234 236 240 244 241 230 227 224 219 214 221 237 246 244 243 240 234 224 200 28 295 281 249 224 227 234 240 244 250 259 267 274 280 283 285 285 285 282 277 272 269 268 270 273 278 282 286 288 288 288 287 286 286 286 286 286 286 287 289 290
248 248 247 247 247 246 245 246 246 246 244 241 238 236 235 235 236 237 236 236 235 232 231 233 233 232 230 230 229 233 241 226 222 220 219 216 223 236 242 238 236 234 229 222 219 228 257 297 261 206 209 225 239 251 260 269 275 279 281 282 282 283 283 282 278 273 271 272 274 278 282 286 288 289 289 288 287 286 286 286 285 285 286 287 289 291
247 247 246 246 245 244 243 242 241 240 240 238 237 235 234 235 236 237 237 237 236 233 229 229 230 230 230 231 233 237 242 236 226 221 219 217 222 233 238 232 228 226 225 224 228 237 245 262 273 266 253 255 260 266 269 271 272 273 275 276 278 278 279 277 273 272 273 277 281 284 287 290 292 292 291 289 288 286 286 285 285 284 285 287 289 292
247 246 245 244 243 242 240 239 237 236 236 236 236 235 234 234 235 236 237 237 236 232 228 226 227 227 228 231 234 237 240 238 232 225 221 217 219 227 231 225 220 219 221 224 228 236 248 256 264 273 276 275 273 273 272 271 271 272 272 273 274 276 275 274 272 273 277 280 284 288 291 293 295 295 293 291 288 287 286 285 284 284 284 287 289 292
243 242 241 240 239 238 237 236 234 234 234 234 234 234 234 233 233 235 236 236 234 231 228 226 226 226 227 228 231 234 236 235 232 227 223 219 220 225 228 221 217 216 218 224 229 235 247 254 258 265 274 278 278 275 274 275 278 279 276 273 274 275 275 274 275 277 280 283 285 288 290 293 294 294 293 291 289 287 285 284 284 285 285 286 288 289
240 238 237 235 233 233 232 231 231 231 232 232 232 232 232 232 231 232 233 233 232 229 228 227 228 229 230 230 231 232 233 233 231 227 224 223 225 227 227 224 221 218 219 224 229 235 245 255 260 264 268 274 278 279 279 281 281 279 275 271 270 270 271 272 275 279 282 284 285 286 289 291 292 292 292 291 289 286 284 283 283 284 284 285 286 286
239 236 233 231 229 229 229 228 228 230 231 230 230 230 229 229 229 229 229 229 228 228 227 227 228 229 230 232 233 233 232 231 228 226 224 224 225 226 227 228 225 221 219 223 229 237 246 259 268 270 268 264 267 275 282 285 283 279 274 272 271 270 269 270 273 276 279 282 284 286 288 290 290 290 289 288 286 284 282 281 282 283 284 286 286 285
239 235 232 230 228 227 227 227 227 228 229 228 228 228 227 227 226 226 226 225 225 225 225 226 227 228 229 229 230 230 228 226 224 224 223 223 223 224 226 228 227 225 223 226 231 237 245 255 265 271 268 264 266 271 278 283 285 283 281 281 279 278 277 277 277 279 280 282 284 285 286 286 286 286 286 286 285 285 284 284 285 287 288 289 289 287
238 234 233 231 229 226 225 225 226 226 227 227 227 227 227 226 226 225 224 224 224 225 225 226 227 227 228 228 228 227 226 224 222 222 222 221 222 223 225 227 228 229 229 231 234 238 243 248 251 255 264 272 276 278 279 281 282 283 286 288 287 286 285 284 284 284 283 283 283 284 284 284 285 286 286 287 287 287 287 288 289 290 292 293 293 292
237 234 233 231 228 226 225 225 226 226 226 226 226 226 225 223 222 221 221 221 222 224 225 226 227 228 228 228 228 228 228 227 227 226 225 224 226 228 228 230 230 231 232 233 236 239 242 246 251 256 261 269 276 280 281 280 280 282 287 289 289 288 289 289 288 287 285 284 284 285 287 288 289 289 289 288 288 288 288 290 291 292 293 294 295 296
239 236 234 232 229 227 226 226 226 225 223 222 221 220 218 217 214 213 213 215 217 219 221 222 224 225 226 227 228 230 231 232 232 232 231 230 231 232 233 235 235 235 234 235 237 239 241 245 250 255 259 264 270 274 275 275 276 279 282 283 285 288 290 290 289 288 287 286 286 288 290 291 292 291 291 290 289 289 289 290 291 291 292 293 294 295
239 236 235 232 230 227 226 225 224 221 219 216 213 211 211 210 208 206 204 205 207 210 213 213 214 215 219 223 227 229 231 233 234 235 235 236 237 238 239 240 240 239 238 238 239 241 242 245 248 252 256 259 264 268 271 272 274 276 277 280 285 291 293 290 288 288 288 288 288 289 290 291 291 291 291 290 290 289 289 289 289 290 291 292 292 292
239 237 235 231 228 226 223 220 217 214 212 210 208 208 209 209 207 205 202 200 200 203 205 206 207 208 210 215 221 226 230 232 235 237 239 241 242 244 244 244 244 243 241 239 239 241 244 246 247 250 253 254 257 261 267 272 275 277 277 280 285 290 291 290 290 290 290 290 291 291 292 292 292 292 292 291 290 289 288 287 287 287 288 290 291 292
241 236 233 229 226 222 217 211 208 206 205 204 204 205 207 208 207 204 201 200 201 201 202 203 205 206 207 212 218 223 229 233 237 239 242 244 245 245 245 244 243 242 241 238 237 239 243 246 246 248 250 251 253 257 264 271 276 279 280 281 281 279 278 282 287 290 291 291 292 294 295 296 296 295 294 291 289 288 288 287 287 288 289 290 291 292
239 234 230 224 218 212 206 203 203 203 202 201 201 202 205 206 205 203 200 200 202 203 202 202 201 203 207 214 218 222 228 233 237 240 241 242 242 242 241 240 239 239 239 238 237 237 238 242 246 249 250 252 255 259 266 273 278 280 280 280 279 276 275 278 282 286 288 291 293 295 298 298 298 296 293 291 289 288 288 289 289 290 291 292 292 292
237 232 225 218 210 205 202 201 200 199 198 198 199 201 203 203 203 202 201 200 201 201 201 200 199 201 208 215 216 217 220 226 232 235 237 238 238 237 236 236 236 236 237 238 239 239 239 241 245 250 255 261 264 266 268 272 275 277 278 279 278 278 278 279 280 283 286 290 293 296 298 299 297 294 292 292 291 291 290 290 290 291 291 292 292 291
234 227 219 212 206 202 201 199 197 195 194 195 197 199 200 201 200 199 200 200 199 198 197 198 199 203 210 213 213 211 210 214 220 227 232 235 236 235 235 234 234 234 237 238 240 241 242 243 247 253 262 270 273 272 271 270 270 271 273 275 277 278 278 279 280 283 287 290 292 296 299 298 297 295 295 295 295 294 292 291 290 290 291 291 291 290
231 224 215 208 203 200 198 195 193 191 191 193 195 197 198 198 197 196 197 197 197 196 194 195 199 204 211 213 212 208 207 209 214 221 227 232 234 234 233 232 232 232 234 235 237 240 243 247 253 258 263 267 269 271 272 270 268 267 268 271 273 274 275 277 281 285 289 291 293 295 297 298 299 301 302 301 298 295 293 292 292 291 291 291 290 290
230 222 214 206 201 198 196 193 190 189 190 191 193 194 195 196 195 194 195 195 195 194 193 195 199 203 209 211 210 208 207 210 215 222 227 228 227 225 224 224 224 224 225 228 234 242 251 258 263 264 264 262 261 262 265 267 266 265 266 266 268 269 272 276 281 286 290 291 293 294 295 297 299 302 303 302 299 296 294 293 293 292 292 292 291 290
225 219 211 205 200 197 195 192 190 189 190 190 191 192 192 192 193 194 195 195 195 195 197 198 200 203 206 207 206 204 204 209 217 224 227 223 217 211 208 209 208 208 212 223 238 254 267 273 274 272 267 262 257 255 256 260 263 264 264 264 265 266 269 274 280 285 289 292 293 295 297 299 300 300 300 299 296 295 294 293 293 293 293 294 293 291
220 214 208 203 199 197 194 192 191 192 192 192 191 190 189 189 190 192 193 193 193 195 198 200 201 203 204 203 202 203 205 211 218 224 223 216 206 199 195 194 193 194 200 219 244 263 274 281 284 283 278 269 258 252 253 255 257 259 260 262 264 267 269 273 280 287 292 295 297 299 300 301 300 299 298 296 294 294 293 293 293 293 295 296 295 294